Regional Weather Roundup
Issued by NWS

Home | Current Version | Previous Version | Graphics & Text | Print | Product List | Glossary On
Versions: 1 2 3 4 5 6 7 8 9 10 11 12 13 14 15 16 17 18 19 20 21 22 23 24 25 26 27 28 29 30 31 32 33 34 35 36 37 38 39 40 41 42 43 44 45 46 47 48 49
000
ASUS45 KCYS 282110
RWRWY

WYOMING REGIONAL WEATHER ROUNDUP
NATIONAL WEATHER SERVICE CHEYENNE WY
300 PM MDT MON JUL 28 2014

NOTE:  "FAIR" INDICATES FEW OR NO CLOUDS BELOW 12,000 FEET
WITH NO SIGNIFICANT WEATHER AND/OR OBSTRUCTIONS TO VISIBILITY.

WYZ001-282200-
YELLOWSTONE NATIONAL PARK

CITY           SKY/WX    TMP DP  RH WIND       PRES   REMARKS
LK YELLOWSTONE   N/A     77  33  20 CALM      30.47F
W YELLOWSTONE  NOT AVBL

$$
WYZ002>013-054>058-071-098>099-282200-
NORTHERN WYOMING

CITY           SKY/WX    TMP DP  RH WIND       PRES   REMARKS
JACKSON        SUNNY     82  39  21 SW10      30.31F
CODY           NOT AVBL
GREYBULL       SUNNY     94  41  16 NE7       30.16F HX  90
WORLAND        SUNNY     93  42  17 N8        30.17F
SHERIDAN       SUNNY     89  49  25 MISG      30.23F
BUFFALO        SUNNY     85  46  25 MISG      30.30F
GILLETTE       SUNNY     86  47  25 CALM      30.26F
HULETT         FAIR      81  50  34 MISG      30.31
NEWCASTLE      FAIR      84  45  24 MISG      30.28

$$
WYZ014>020-022>026-101>103-282200-
CENTRAL WYOMING

CITY           SKY/WX    TMP DP  RH WIND       PRES   REMARKS
BIG PINEY      MOSUNNY   86  31  13 W7        30.36F
PINEDALE       CLOUDY    81  32  17 N5        30.37F
DUBOIS         FAIR      77  32  19 E3        30.39F
LANDER         MOSUNNY   92  33  12 N8        30.23F
RIVERTON       MOSUNNY   89  37  16 E8        30.26F
CASPER         SUNNY     89  35  14 NE9       30.27F
DOUGLAS        SUNNY     89  44  20 VRB3      30.29F

$$
WYZ021-027>030-104>119-282200-
SOUTHERN WYOMING

CITY           SKY/WX    TMP DP  RH WIND       PRES   REMARKS
EVANSTON       CLOUDY    80  42  25 S17G25    30.36F
FORT BRIDGER   FAIR      87  32  14 S9G16     30.37F
ROCK SPRINGS   MOSUNNY   88  26  10 E9        30.31F
DIXON          FAIR      91  32  12 S6        30.32F
RAWLINS        SUNNY     86  28  12 E10G18    30.36F
SARATOGA       FAIR      86  30  13 N15G21    30.37F
LARAMIE        MOSUNNY   80  47  31 SE13      30.41F
CHEYENNE       MOSUNNY   81  51  35 S12G20    30.36F
TORRINGTON     SUNNY     88  57  34 MISG      30.24F
PINE BLUFFS    MOCLDY    82  50  32 E7        30.30F

$$



USA.gov is the U.S. government's official web portal to all federal, state and local government web resources and services.